[[{"header":{"parameterUnit":"m.s-1","parameterCategory":1,"la1":30.2992,"la2":30.254,"lo1":-89.0895,"lo2":-89.0443,"dy":0.0025,"dx":0.0025,"nx":19,"ny":19,"refTime":"2026-05-15T09:00:00:Z","depth":0,"parameterNumber":2,"parameterNumberName":"U-component_of_WINDS"},"data":[0,0,0,-0.931,-0.9312,-0.9374,-0.9374,-0.9456,-0.9456,0,0,0,0,0,0,0,0,0,0,0,-0.9293,-0.9293,-0.931,-0.9312,-0.9374,-0.9374,-0.9456,-0.9456,0,0,0,0,0,0,0,0,0,0,0,-0.9292,-0.9293,-0.9294,-0.9312,-0.9374,-0.9374,-0.9455,-0.9408,0,0,0,0,0,0,0,0,0,0,-0.9347,-0.9332,-0.9293,-0.9294,-0.9312,-0.9374,-0.9374,-0.9406,-0.9411,-0.9428,0,-0.9443,0,-0.9451,-0.9462,-0.9462,0,0,0,-0.9312,-0.9327,-0.9343,-0.9294,-0.9313,-0.9373,-0.9346,-0.9409,-0.9415,-0.9435,-0.9445,-0.9448,-0.9453,-0.9462,-0.9463,-0.9564,-0.9564,0,0,-0.9308,-0.9304,-0.9339,-0.9347,-0.9337,-0.9344,-0.9348,-0.9412,-0.9422,-0.9445,-0.9449,-0.9454,-0.9463,-0.9464,-0.9563,-0.9564,0,0,0,-0.9298,-0.9302,-0.9316,-0.9344,-0.9355,-0.9345,-0.935,-0.9419,-0.9424,-0.945,-0.9455,-0.9464,-0.9465,-0.9563,-0.9563,-0.9584,0,0,0,-0.9296,-0.9296,-0.9315,-0.9313,-0.9353,-0.9388,-0.9356,-0.942,-0.9427,-0.9454,-0.9464,-0.9465,-0.9562,-0.9563,-0.9582,-0.9595,0,0,0,-0.9288,-0.9296,-0.9305,-0.9313,-0.9339,-0.9387,-0.9395,-0.9421,-0.943,-0.9462,-0.9466,-0.9562,-0.9563,-0.9581,-0.9592,-0.9621,0,0,0,-0.9279,-0.9322,-0.9305,-0.9355,-0.9339,-0.9398,-0.9395,-0.944,-0.947,-0.9464,-0.9562,-0.9563,-0.958,-0.9591,-0.9619,-0.9645,-0.9655,0,0,-0.9331,-0.9328,-0.9358,-0.9344,-0.9406,-0.9389,-0.9455,-0.9486,-0.9492,-0.954,-0.9542,-0.9583,-0.9592,-0.962,-0.9711,-0.9719,0,0,0,-0.9373,-0.9395,-0.9412,-0.944,-0.9464,-0.9487,-0.9508,-0.952,-0.956,-0.9516,-0.9601,-0.9606,-0.9623,-0.9635,-0.9642,-0.9657,-0.9569,-0.9568,-0.9568,-0.9443,-0.9448,-0.9498,-0.9511,-0.9539,-0.9561,-0.9584,-0.9603,-0.9601,-0.9621,-0.9636,-0.969,-0.9704,-0.9709,-0.9725,-0.9649,-0.9649,-0.9649,-0.9649,-0.9521,-0.9552,-0.9548,-0.9595,-0.9601,-0.9641,-0.9663,-0.9661,-0.9699,-0.9679,-0.9694,-0.9673,-0.9718,-0.9732,-0.9651,-0.9651,-0.965,-0.965,-0.965,-0.9567,-0.9584,-0.9596,-0.9638,-0.967,-0.9682,-0.9719,-0.9723,-0.9727,-0.9742,-0.9758,-0.9758,-0.9759,-0.9749,-0.975,-0.975,-0.975,-0.975,-0.975,-0.9611,-0.9625,-0.9656,-0.9685,-0.9704,-0.9729,-0.9752,-0.9771,-0.9793,-0.9793,-0.9794,-0.979,-0.972,-0.9703,-0.9753,-0.9753,-0.9752,-0.9752,-0.9752,-0.969,-0.9673,-0.972,-0.9739,-0.9774,-0.9805,-0.981,-0.9848,-0.9865,-0.9883,-0.9876,-0.9824,-0.9821,-0.9816,-0.9802,-0.9874,-0.9874,-0.9874,-0.9874,-0.9731,-0.9729,-0.9778,-0.9808,-0.9838,-0.9847,-0.9901,-0.9919,-0.9935,-0.9945,-0.9935,-0.9917,-0.9911,-0.9912,-0.9905,-0.9892,-0.9985,-0.9985,-0.9985,-0.978,-0.9782,-0.9826,-0.9841,-0.9869,-0.9893,-0.9944,-0.9979,-0.9994,-0.999,-0.9954,-0.9949,-0.9919,-0.9909,-0.9905,-0.9894,-0.987,0,0]},{"header":{"parameterUnit":"m.s-1","parameterCategory":1,"la1":30.2992,"la2":30.254,"lo1":-89.0895,"lo2":-89.0443,"dy":0.0025,"dx":0.0025,"nx":19,"ny":19,"refTime":"2026-05-15T09:00:00:Z","depth":0,"parameterNumber":3,"parameterNumberName":"V-component_of_WINDS"},"data":[0,0,0,4.0791,4.0793,4.0859,4.0859,4.0955,4.0956,0,0,0,0,0,0,0,0,0,0,0,4.0781,4.0782,4.0791,4.0793,4.0859,4.0859,4.0955,4.0956,0,0,0,0,0,0,0,0,0,0,0,4.0781,4.0782,4.0783,4.0793,4.0859,4.0859,4.0955,4.09,0,0,0,0,0,0,0,0,0,0,4.0834,4.0835,4.0782,4.0783,4.0794,4.0859,4.0859,4.0898,4.0904,4.0931,0,4.096,0,4.096,4.0964,4.0964,0,0,0,4.0786,4.083,4.0839,4.0783,4.0794,4.0859,4.0827,4.0901,4.0908,4.094,4.0961,4.0964,4.0961,4.0964,4.0965,4.1148,4.115,0,0,4.0782,4.0798,4.0834,4.0844,4.0837,4.0825,4.0829,4.0905,4.0929,4.0961,4.0966,4.0963,4.0965,4.0966,4.1147,4.1149,0,0,0,4.0777,4.0796,4.0803,4.084,4.0851,4.0827,4.0832,4.0925,4.0926,4.0967,4.0964,4.0966,4.0967,4.1146,4.1148,4.1221,0,0,0,4.0774,4.0792,4.0802,4.0812,4.085,4.089,4.0851,4.0921,4.0929,4.0964,4.0966,4.0968,4.1145,4.1147,4.1216,4.1253,0,0,0,4.0774,4.0792,4.0805,4.0813,4.0842,4.0888,4.0893,4.0923,4.0928,4.0964,4.0968,4.1144,4.1147,4.1212,4.1245,4.1303,0,0,0,4.0777,4.0871,4.0807,4.0909,4.0841,4.0934,4.0893,4.0961,4.1001,4.0966,4.1145,4.1148,4.121,4.1241,4.1299,4.1354,4.1379,0,0,4.0904,4.0887,4.0946,4.089,4.0998,4.0923,4.104,4.1062,4.1051,4.1116,4.112,4.1218,4.1245,4.1302,4.1516,4.1536,0,0,0,4.0991,4.1033,4.1058,4.1097,4.1116,4.1134,4.1136,4.1143,4.1197,4.1089,4.1255,4.1271,4.1304,4.1329,4.1346,4.1372,4.1161,4.116,4.116,4.1193,4.1172,4.1267,4.1254,4.1292,4.1292,4.132,4.1329,4.1299,4.1339,4.1357,4.149,4.152,4.1533,4.156,4.1386,4.1387,4.1387,4.1387,4.1374,4.1429,4.1385,4.1461,4.1438,4.1501,4.1503,4.1479,4.1533,4.1475,4.1503,4.1439,4.1555,4.1578,4.1392,4.1391,4.1391,4.139,4.139,4.1502,4.1525,4.1532,4.1583,4.1624,4.1607,4.166,4.1638,4.1618,4.1646,4.1661,4.166,4.1653,4.1655,4.1655,4.1656,4.1656,4.1657,4.1657,4.1631,4.1637,4.1684,4.171,4.1729,4.1753,4.1751,4.177,4.1784,4.1764,4.1764,4.1727,4.1571,4.1531,4.1664,4.1663,4.1662,4.1661,4.1661,4.182,4.1773,4.1846,4.1866,4.1891,4.1932,4.1903,4.1941,4.1954,4.1979,4.1937,4.1826,4.1806,4.1793,4.1759,4.1943,4.1943,4.1943,4.1943,4.1926,4.1914,4.1982,4.2014,4.2043,4.2023,4.2103,4.2102,4.2093,4.2098,4.2069,4.2023,4.201,4.1998,4.198,4.1948,4.2176,4.2176,4.2176,4.2039,4.2028,4.2102,4.2092,4.2109,4.2124,4.2198,4.2235,4.2215,4.2185,4.2101,4.2092,4.2017,4.1995,4.1962,4.1935,4.1876,0,0]}]]